Skip Page Navigation
NASA JPL Caltech
NASA Logo - Jet Propulsion Laboratory + View the NASA Portal
+ Center for Near-Earth Object Studies
JPL Home Earth Solar System Stars & Galaxies Technology
JPL Solar System Dynamics
BODIES ORBITS EPHEMERIDES TOOLS PHYSICAL DATA DISCOVERY FAQ SITE MAP
JPL Small-Body Database Browser
Search: [ help ]  
17219 Gianninoto (2000 CV)
Classification: Main-belt Asteroid          SPK-ID: 2017219
Ephemeris | Orbit Diagram | Orbital Elements | Mission Design | Physical Parameters | Discovery Circumstances | Close-Approach Data ]

[ show orbit diagram ]
Orbital Elements at Epoch 2459000.5 (2020-May-31.0) TDB
Reference: JPL 35 (heliocentric ecliptic J2000)
 Element Value Uncertainty (1-sigma)   Units 
e .1208183200808513 3.6719e-08  
a 2.693158652274591 1.4834e-08 au
q 2.367775748195565 9.8571e-08 au
i 14.12536705433222 4.0691e-06 deg
node 147.5260488494278 1.829e-05 deg
peri 338.4320216291234 2.6129e-05 deg
M 231.3094561683816 1.8964e-05 deg
tp 2459577.579264404144
(2021-Dec-29.07926440)
8.644e-05 TDB
period 1614.326344422902
4.42
1.3337e-05
3.651e-08
d
yr
n .2230032367641839 1.8424e-09 deg/d
Q 3.018541556353617 1.6626e-08 au
  Orbit Determination Parameters
   # obs. used (total)      1726  
   data-arc span      23069 days (63.16 yr)  
   first obs. used      1956-03-11  
   last obs. used      2019-05-09  
   planetary ephem.      DE431  
   SB-pert. ephem.      SB431-N16  
   condition code      0  
   norm. resid. RMS      .44486  
   source      ORB  
   producer      Otto Matic  
   solution date      2019-May-30 02:29:55  

Additional Information
 Earth MOID = 1.38727 au 
 Jupiter MOID = 2.03254 au 
 T_jup = 3.317 
[ show covariance matrix ]

Ephemeris | Orbit Diagram | Orbital Elements | Mission Design | Physical Parameters | Discovery Circumstances | Close-Approach Data ]

Physical Parameter Table
Parameter Symbol Value Units Sigma Reference Notes
absolute magnitude H 13.0   n/a MPO347659  
diameter diameter 6.135 km 0.205 urn:nasa:pds:neowise_diameters_albedos::2.0[mainbelt] (http://adsabs.harvard.edu/abs/2011ApJ...741...68M)  
geometric albedo albedo 0.205   0.034 urn:nasa:pds:neowise_diameters_albedos::2.0[mainbelt] (http://adsabs.harvard.edu/abs/2011ApJ...741...68M)  

17219 Gianninoto           Discovered 2000 Feb. 1 by the Catalina Sky Survey.
Joe Gianninoto (b. 1947) is an avid amateur astronomer originally from New York, now living in Tucson, Arizona. He specializes in white light and H-alpha solar observing with the Association of Lunar and Planetary Observers.
NOTE: some special characters may not display properly (any characters within {} are an attempt to place the proper accent above a character)
Reference: MPC batch dated 2015-09-28Last Updated: 2015-10-05

[ show close-approach data ]
Ephemeris | Orbit Diagram | Orbital Elements | Mission Design | Physical Parameters | Discovery Circumstances | Close-Approach Data ]
ABOUT SSD CREDITS/AWARDS PRIVACY/COPYRIGHT GLOSSARY LINKS
FirstGov 2020-Aug-03 19:17 UT
(server date/time)  
NASA Home Page
Site Manager:   Ryan S. Park
Webmaster  Alan B. Chamberlin